SPACEBEE-31 (46947 NORAD) Tracking and Keplerian Element Data

This shows tracking and keplerian element data for the satellite.

Feedback or suggestion? Click here.




ElementValue
Catalog46947
NameSPACEBEE-31
Epoch Orbit896
Epoch Day18.08605887
Epoch Year2021
RAAN157.4366
Inclination97.3731
Eccentricity0.0016494
Argument of Perigee102.6564
Mean Anonmoly257.6471
Mean Motion15.20951784
Decay Rate3.585E-05
L11 46947U 20085U 21018.08605887 .00003585 00000-0 16444-3 0 9992
L22 46947 97.3731 157.4366 0016494 102.6564 257.6471 15.20951784 8969

Live tracking and technical data element details for SPACEBEE-31 (NORAD 46947). SPACEBEE-31 can be tracked NOW for your location showing map with azimuth and elevation plus other details from your city location.

Track the satellite on the map from your city or location and see movement details for azimuth, elevation, latitude, longitude, range, height, and movement on the map or in text.







IsCatalogInMostPopularTable: catalog: 46947, numindb: 22
Update: records affected: 1



GetName: 46947 SPACEBEE-31

Hit Count: updated at: Mon, 18 Jan 2021 16:22:42 GMT